Open Text Current Ratio 2006-2019 | OTEX

Current and historical current ratio for Open Text (OTEX) from 2006 to 2019. Current ratio can be defined as a liquidity ratio that measures a company's ability to pay short-term obligations. Open Text current ratio for the three months ending March 31, 2019 was 1.38.
Open Text Current Ratio Historical Data
Date Current Assets Current Liabilities Current Ratio
2019-03-31 $1.40B $1.02B 1.38
2018-12-31 $1.21B $0.91B 1.33
2018-09-30 $1.33B $0.88B 1.51
2018-06-30 $1.33B $1.00B 1.34
2018-03-31 $1.27B $1.30B 0.98
2017-12-31 $1.11B $1.29B 0.86
2017-09-30 $0.96B $1.30B 0.74
2017-06-30 $1.00B $1.13B 0.89
2017-03-31 $0.91B $1.13B 0.81
2016-12-31 $2.12B $0.64B 3.29
2016-09-30 $1.23B $0.67B 1.83
2016-06-30 $1.67B $0.67B 2.49
2016-03-31 $1.26B $0.61B 2.06
2015-12-31 $1.12B $0.56B 2.01
2015-09-30 $1.04B $0.54B 1.94
2015-06-30 $1.07B $0.62B 1.71
2015-03-31 $0.99B $0.60B 1.66
2014-12-31 $0.90B $0.56B 1.60
2014-09-30 $0.82B $0.57B 1.43
2014-06-30 $0.82B $0.64B 1.27
2014-03-31 $0.70B $0.64B 1.10
2013-12-31 $0.76B $0.50B 1.53
2013-09-30 $0.73B $0.52B 1.39
2013-06-30 $0.72B $0.53B 1.36
2013-03-31 $0.71B $0.55B 1.28
2012-12-31 $0.61B $0.48B 1.29
2012-09-30 $0.55B $0.50B 1.10
2012-06-30 $0.79B $0.48B 1.66
2012-03-31 $0.77B $0.48B 1.59
2011-12-31 $0.66B $0.43B 1.54
2011-09-30 $0.35B $0.47B 0.73
2011-06-30 $0.52B $0.42B 1.24
2011-03-31 $0.47B $0.44B 1.07
2010-12-31 $0.55B $0.38B 1.44
2010-09-30 $0.56B $0.40B 1.40
2010-06-30 $0.54B $0.42B 1.28
2010-03-31 $0.51B $0.36B 1.41
2009-12-31 $0.45B $0.33B 1.38
2009-09-30 $0.42B $0.35B 1.22
2009-06-30 $0.44B $0.32B 1.37
2009-03-31 $0.39B $0.32B 1.22
2008-12-31 $0.34B $0.30B 1.12
2008-09-30 $0.40B $0.25B 1.59
2008-06-30 $0.43B $0.30B 1.44
2008-03-31 $0.41B $0.28B 1.46
2007-12-31 $0.34B $0.25B 1.36
2007-09-30 $0.33B $0.25B 1.33
2007-06-30 $0.35B $0.28B 1.24
2007-03-31 $0.31B $0.27B 1.13
2006-12-31 $0.28B $0.24B 1.16
2006-09-30 $0.22B $0.14B 1.59
2006-06-30 $0.23B $0.15B 1.55
2006-03-31 $0.23B $0.15B 1.49
2005-12-31 $0.20B $0.15B 1.32
2005-09-30 $0.18B $0.15B 1.16
2005-06-30 $0.19B $0.17B 1.16
2005-03-31 $0.22B $0.16B 1.34
Sector Industry Market Cap Revenue
Computer and Technology Computer Software $11.532B $2.815B
Open Text Corporation is engaged in development of innovative intranet, extranet and e-Business applications. Since creating one of the first search engines to index the World Wide Web, the company has remained at the forefront of Internet-based technologies. Open Text solutions allow individuals, teams, organizations, and global trading communities to collaborate on projects, share ideas and accelerate innovation to the fastest possible speed. Open Text Corporation is headquartered in Waterloo, Canada.
Stock Name Country Market Cap PE Ratio
Microsoft (MSFT) United States $1000.000B 30.80
Oracle (ORCL) United States $198.581B 18.55
SAP SE (SAP) Germany $168.465B 32.49
Adobe (ADBE) United States $149.884B 53.60
Salesforce, Inc (CRM) United States $123.888B 102.34
Intuit (INTU) United States $73.249B 47.33
VMware (VMW) United States $70.470B 35.00
Dassault Systemes SA (DASTY) France $40.792B 45.64
Autodesk (ADSK) United States $38.150B 526.39
Cadence Design Systems (CDNS) United States $21.133B 53.71
Synopsys (SNPS) United States $20.605B 34.71
ANSYS (ANSS) United States $17.702B 40.72
SS&C Technologies Holdings (SSNC) United States $14.899B 19.76
Symantec (SYMC) United States $14.120B 19.86
Citrix Systems (CTXS) United States $13.367B 23.78
PTC (PTC) United States $10.402B 85.30
Aspen Technology (AZPN) United States $9.309B 48.38
Trend Micro (TMICY) Japan $6.276B 24.28
Pegasystems (PEGA) United States $6.091B 0.00
Konami (KNMCY) Japan $6.007B 21.36
Nuance Communications (NUAN) United States $4.764B 18.45
Manhattan Associates (MANH) United States $4.640B 45.75
Blackbaud (BLKB) United States $4.148B 52.06
ACI Worldwide (ACIW) United States $3.831B 49.50
Cornerstone OnDemand (CSOD) United States $3.688B 0.00
Verint Systems (VRNT) United States $3.652B 21.95
Descartes Systems Group (DSGX) Canada $3.149B 93.57
PROS Holdings (PRO) United States $2.577B 0.00
CommVault Systems (CVLT) United States $2.267B 96.73
Bottomline Technologies (EPAY) United States $1.889B 57.89
Progress Software (PRGS) United States $1.860B 19.80
MicroStrategy (MSTR) United States $1.266B 158.49
Monotype Imaging Holdings (TYPE) United States $0.715B 22.43
QAD (QADB) United States $0.648B 117.82
Rosetta Stone (RST) United States $0.576B 0.00
Simulations Plus (SLP) United States $0.559B 72.52
Magic Software Enterprises (MGIC) Israel $0.434B 15.86
Avid Technology (AVID) United States $0.429B 32.94
American Software (AMSWA) United States $0.415B 46.00
OptimizeRx (OPRX) United States $0.185B 383.00
GlobalSCAPE (GSB) United States $0.163B 24.33
Icad Inc (ICAD) United States $0.133B 0.00
Park City (PCYG) United States $0.102B 22.22
Smith Micro Software (SMSI) United States $0.097B 43.43
ServiceSource (SREV) United States $0.095B 0.00
ImageWare Systems (IWSY) United States $0.090B 0.00
NetSol Technologies (NTWK) United States $0.066B 10.43